Location: Home
(42.5358°N, 72.7383°W)
Time: 19:23:13
(UTC-05:00)

A-11 Canister half - Pass Details

Date: 01 December 2021
Orbit: 1524 x 1684 km, 47.3° (Epoch: 23 January)

Event Time Altitude Azimuth Distance (km) Brightness Sun altitude
Rises 09:22:24 0° 295° (WNW) 4,868 11.1 18.2°
Reaches altitude 10° 09:25:58 10° 287° (WNW) 3,855 10.7 18.5°
Maximum altitude 09:34:14 33° 228° (SW) 2,452 10.4 19.3°
Drops below altitude 10° 09:42:17 10° 170° (S) 3,734 12.7 20.1°
Sets 09:45:43 0° 160° (SSE) 4,696 13.1 20.4°
